LEMUR-2-EJATTA (44409 NORAD) Tracking and Keplerian Element Data

This shows tracking and keplerian element data for the satellite.

Feedback or suggestion? Click here.




ElementValue
Catalog44409
NameLEMUR-2-EJATTA
Epoch Orbit187
Epoch Day198.87513427
Epoch Year2019
RAAN160.5848
Inclination97.4868
Eccentricity0.0024095
Argument of Perigee198.8859
Mean Anonmoly161.148
Mean Motion15.11905488
Decay Rate8E-06
L11 44409U 19038Z 19198.87513427 .00000800 00000-0 50225-4 0 9993
L22 44409 97.4868 160.5848 0024095 198.8859 161.1480 15.11905488 1874

Live tracking and technical data element details for LEMUR-2-EJATTA (NORAD 44409). LEMUR-2-EJATTA can be tracked NOW for your location showing map with azimuth and elevation plus other details from your city location.

Track the satellite on the map from your city or location and see movement details for azimuth, elevation, latitude, longitude, range, height, and movement on the map or in text.







IsCatalogInMostPopularTable: catalog: 44409, numindb: 5
Update: records affected: 1



GetName: 44409 LEMUR-2-EJATTA

Hit Count: updated at: Fri, 19 Jul 2019 07:59:45 GMT